Wind_Speed
91 91 90 89 89 88 87 86 84 83 82 80 80 79 79 78 78 77 76 75 74 73 72 72 73 74 73 71 71 71 72 73 74 76 77 77 75 72 71 70 70 71 71 71 71 71 71 71 71 71 71 71 71 71 71 71 72 73 74 75 76 77 78 79 79 79 79 80 79 79 79 79 80 80 81 81 81 80 80 80 80 80 81 82 83 84
91 90 90 90 89 89 88 86 84 82 81 80 80 79 78 78 77 77 75 74 73 72 72 72 73 74 74 72 71 72 73 74 75 76 77 77 74 72 70 70 70 71 71 71 71 71 71 71 71 71 71 71 71 71 72 73 74 75 76 77 77 78 79 80 80 80 80 80 79 79 79 80 80 81 81 80 80 80 80 80 80 81 82 83 83 84
90 90 90 90 90 89 88 86 84 82 80 80 80 79 78 78 77 76 75 74 73 71 71 71 72 73 73 72 71 72 73 74 75 76 77 77 75 72 70 70 71 71 71 71 71 71 71 71 71 71 71 71 72 73 74 75 75 76 77 78 79 79 80 80 80 80 80 79 79 78 79 80 81 81 81 80 79 79 79 80 81 82 82 83 84 84
88 89 90 90 89 89 87 85 83 81 80 80 79 78 77 77 77 76 75 74 72 71 70 70 72 72 72 70 70 71 73 74 75 76 77 77 75 73 72 71 72 72 72 72 71 71 71 71 71 71 72 73 74 74 75 76 77 78 78 79 79 80 81 81 81 80 80 79 78 78 79 80 81 81 80 80 79 79 79 80 81 82 83 84 84 84
86 87 88 89 89 88 86 84 82 81 80 79 79 78 77 77 76 76 75 73 72 70 70 70 71 72 71 69 69 70 73 75 76 76 77 78 76 75 73 73 72 72 72 72 71 71 71 71 72 72 73 74 75 76 77 77 78 78 78 79 79 80 81 81 81 80 79 78 78 78 79 80 81 81 80 80 79 79 80 80 81 82 83 84 84 84
84 85 87 87 87 86 84 83 81 80 80 79 79 78 77 77 76 75 74 73 71 70 70 71 72 72 71 69 69 71 74 76 77 77 77 78 77 76 74 73 73 72 72 72 72 72 72 72 73 74 74 75 76 77 78 78 78 78 78 79 79 80 80 81 80 79 78 78 78 79 79 80 80 80 80 80 80 80 81 81 82 83 83 84 84 83
82 83 85 85 85 84 82 82 81 80 80 80 79 78 77 77 77 76 74 73 71 70 71 72 73 73 72 70 71 73 75 77 78 78 77 77 77 77 76 74 73 73 73 73 73 73 73 73 74 74 75 76 77 78 78 78 78 78 78 79 79 80 80 80 79 79 78 78 78 79 79 79 79 79 79 80 80 81 82 82 83 83 84 84 83 83
80 82 83 83 83 82 81 81 80 80 80 80 80 79 78 78 78 77 75 73 71 71 72 73 74 74 73 72 73 75 77 79 79 79 78 77 77 77 76 75 74 74 74 74 73 73 73 73 74 75 76 77 78 78 79 79 78 78 79 79 79 80 80 79 79 78 78 78 79 79 79 79 79 79 79 80 81 82 82 83 83 84 84 84 83 82
79 80 81 81 81 80 80 81 80 80 80 81 80 80 79 79 78 78 76 74 72 72 73 74 75 75 74 74 75 77 80 81 81 79 78 77 77 77 77 76 75 75 74 74 73 73 73 73 74 75 76 77 78 78 79 79 79 79 79 80 80 80 80 79 79 78 79 79 79 79 79 79 79 79 79 80 81 82 83 83 84 84 84 83 83 82
77 79 79 79 80 80 80 80 80 79 80 81 81 80 79 79 79 78 77 75 74 74 75 75 76 76 76 76 78 80 81 82 81 79 78 77 77 77 76 75 75 74 73 73 73 72 73 73 74 75 76 77 78 79 79 79 80 80 80 81 81 81 80 80 79 79 79 79 80 80 79 79 79 79 80 81 81 82 83 83 84 84 83 83 82 82
76 77 77 78 79 79 80 79 79 78 79 80 80 80 79 79 78 78 78 77 76 76 76 76 76 76 76 77 79 81 82 82 80 78 77 76 75 75 74 74 73 73 73 72 73 73 73 74 75 76 77 78 79 79 80 80 81 81 81 82 82 81 81 80 79 79 80 80 80 80 79 79 79 80 80 81 82 82 83 83 83 83 83 83 82 82
75 75 76 77 78 79 79 78 77 77 78 79 80 79 79 78 77 77 78 77 77 76 75 75 74 74 75 77 79 81 81 79 77 76 75 74 73 72 72 72 72 72 73 73 74 74 75 76 77 77 78 79 80 80 81 81 82 82 82 82 82 82 81 80 80 80 80 80 80 80 80 80 80 80 81 82 82 83 83 83 83 83 82 82 82 81
74 74 75 76 77 78 78 77 76 76 77 78 79 79 78 77 76 76 77 77 76 75 74 73 72 72 74 76 77 78 77 75 74 73 72 71 71 71 71 72 73 73 74 74 75 76 76 77 78 79 79 80 81 81 82 82 82 83 83 83 83 82 81 80 80 79 80 80 80 80 80 80 81 81 82 82 82 83 83 83 83 82 82 82 81 81
74 73 74 75 76 77 76 75 74 75 76 77 77 77 76 75 75 74 74 75 75 74 73 72 71 72 73 74 75 74 73 72 72 71 71 71 71 72 73 73 74 75 75 76 77 77 78 78 79 80 80 81 81 82 82 83 83 83 83 83 83 82 81 80 79 79 80 80 80 81 81 81 82 82 82 82 83 83 83 83 82 82 82 82 82 82
74 74 74 75 76 75 74 73 73 74 75 75 75 75 74 73 72 72 72 73 73 73 73 73 73 74 74 74 74 73 72 72 72 72 72 72 73 74 74 75 76 77 77 77 78 79 79 79 80 81 81 82 82 83 83 83 83 82 82 82 82 81 80 79 79 79 80 81 81 81 82 82 82 83 83 83 83 83 83 82 82 82 82 82 82 82
75 74 74 75 75 74 73 73 72 72 73 73 73 74 73 72 71 70 71 72 73 73 74 75 76 77 77 77 76 75 74 74 74 74 74 75 75 76 76 77 77 78 78 79 79 80 80 81 81 82 82 83 83 83 83 82 82 81 81 81 81 81 80 79 79 80 80 81 82 82 82 83 83 83 83 83 83 83 83 82 82 82 82 82 82 82
76 75 75 75 74 74 73 72 71 71 71 71 72 73 73 72 71 71 71 73 74 75 76 77 78 79 81 81 81 80 79 78 78 78 77 77 78 78 78 78 78 79 79 80 80 81 81 82 83 83 83 83 83 83 82 82 81 80 80 81 81 80 80 80 80 81 81 82 82 83 83 83 83 83 83 83 83 83 83 83 83 83 83 83 83 83
77 76 76 75 74 73 72 72 71 70 69 71 72 74 74 73 72 72 72 74 75 76 77 79 80 81 82 83 84 84 83 82 81 81 80 80 80 80 80 79 79 79 80 81 81 82 82 83 83 84 84 83 83 82 81 81 80 80 80 80 81 81 81 81 81 82 82 82 83 83 83 83 83 83 83 83 83 83 83 83 83 83 84 84 83 82
77 77 76 75 74 73 72 72 71 70 69 71 74 75 76 76 75 74 74 75 76 77 78 79 80 81 82 83 84 84 84 83 83 83 83 82 82 82 81 80 80 81 81 82 82 83 83 84 84 84 83 83 82 82 81 81 80 80 80 81 81 82 82 82 82 82 83 83 83 82 83 83 83 83 83 83 84 84 84 84 84 84 84 84 83 82
78 77 76 75 74 73 73 72 72 71 71 73 75 78 79 79 78 77 77 77 78 79 79 80 80 81 82 82 83 83 83 83 83 84 84 84 84 83 82 82 81 82 82 83 83 84 84 84 84 84 84 83 83 82 82 81 81 81 81 82 82 83 83 83 83 83 83 82 82 82 82 83 83 83 84 84 84 84 85 85 85 85 85 84 83 82
78 78 77 76 75 73 73 73 73 72 72 74 77 80 82 82 82 81 81 81 81 81 82 82 82 83 83 83 83 83 83 83 84 84 85 85 85 84 83 83 82 82 82 83 84 85 85 85 85 84 84 84 83 83 83 82 82 82 83 83 83 83 83 83 83 83 83 82 82 82 83 83 83 84 84 85 85 85 85 86 86 86 85 84 83 81
79 78 77 76 75 74 74 75 75 74 74 77 80 83 84 85 85 85 85 85 85 85 85 85 86 86 86 85 85 85 85 85 85 85 86 86 86 86 85 84 83 83 83 84 85 86 86 86 85 85 85 84 84 84 84 84 83 84 84 84 84 84 84 83 83 83 82 82 82 83 83 84 84 84 85 85 85 86 86 86 86 86 85 84 82 81
80 79 78 77 76 76 76 76 76 76 77 80 83 86 87 88 88 88 89 89 89 89 89 89 90 89 89 89 88 88 88 88 88 88 88 87 88 87 86 85 83 83 84 86 87 87 87 86 86 86 85 85 85 85 84 84 84 84 84 84 84 84 83 83 83 82 82 83 83 83 84 84 85 85 86 86 86 86 87 87 87 86 85 83 82 80
81 80 79 78 78 77 78 78 78 79 80 83 86 89 90 90 91 91 91 91 92 92 92 92 92 92 92 92 92 91 91 91 91 90 90 89 89 88 87 85 83 84 86 87 87 87 87 87 87 86 86 86 85 85 85 84 84 84 84 84 84 83 83 83 83 83 83 83 84 84 85 85 86 86 86 86 87 87 87 87 87 86 85 83 81 80
81 81 80 80 79 79 79 80 80 81 82 84 88 91 92 93 93 93 93 93 93 93 94 94 94 94 94 94 93 93 93 93 92 91 91 90 89 88 86 84 84 85 87 88 88 88 87 87 87 86 86 86 85 85 85 84 84 84 84 84 83 83 83 83 83 83 84 84 85 85 86 86 86 86 87 87 87 87 87 87 87 86 84 82 81 80
82 81 81 81 81 80 81 81 82 83 83 85 87 90 92 94 94 94 94 94 94 94 94 94 94 94 94 94 93 93 94 93 92 91 90 89 88 86 85 84 84 86 88 88 88 88 87 87 87 86 86 85 85 85 84 84 84 84 84 83 83 83 83 83 84 84 84 85 86 86 87 87 87 87 87 87 87 88 88 87 86 85 83 82 81 80
83 82 82 82 82 82 82 82 83 84 84 85 86 88 90 93 94 95 95 95 95 95 94 94 94 94 93 93 93 93 93 92 91 90 88 87 85 84 84 84 85 87 88 88 88 87 87 86 86 86 85 85 85 84 84 84 84 84 83 83 83 83 84 84 85 85 85 86 86 87 87 88 88 88 88 88 88 88 88 87 86 85 83 82 82 81
84 83 83 83 83 83 83 83 84 84 85 85 85 85 87 89 92 94 96 96 96 96 96 95 95 94 93 93 92 92 92 91 90 88 87 85 83 83 84 85 86 87 87 88 87 87 86 86 86 85 85 85 85 84 84 84 84 84 83 83 84 84 85 85 86 86 87 87 87 88 88 89 89 89 89 89 89 89 88 87 86 85 84 83 82 81
84 84 84 84 84 84 84 85 85 85 85 85 85 85 85 86 89 91 93 95 96 97 97 97 96 95 94 93 93 92 91 90 89 87 85 83 82 84 85 86 86 87 87 87 87 86 86 86 85 85 85 85 85 84 84 84 84 84 84 84 85 85 86 86 87 87 88 88 89 89 90 90 90 89 89 89 89 89 89 88 86 85 84 83 82 82
85 84 84 85 85 85 85 86 85 85 85 84 84 84 84 85 86 87 89 91 94 95 96 96 96 95 93 92 91 90 89 89 87 85 83 82 83 85 86 86 86 87 86 86 86 86 86 86 85 85 85 85 85 85 84 84 84 84 85 85 86 86 87 87 88 88 89 89 90 90 90 90 90 90 90 90 90 90 89 88 86 85 84 83 83 82
85 85 85 85 86 86 86 86 86 85 85 84 84 83 84 84 84 85 86 88 90 92 93 94 93 92 91 90 89 88 88 87 86 84 82 83 84 86 86 86 86 86 86 85 85 85 86 86 86 85 85 85 85 85 85 85 85 85 86 86 87 88 88 88 89 89 90 91 91 91 91 91 91 91 91 91 91 90 89 88 87 85 84 84 83 82
85 85 85 86 86 86 86 86 86 86 85 84 83 83 83 83 84 84 85 86 87 88 89 89 89 89 88 87 87 86 86 85 84 83 82 83 85 86 86 86 86 86 86 85 85 85 85 86 86 86 86 85 85 85 85 86 86 86 87 88 88 89 89 90 90 91 91 92 92 92 92 92 91 92 92 92 92 91 90 88 87 86 85 84 83 83
85 85 86 86 86 86 86 86 86 86 85 84 84 83 83 83 82 83 83 84 84 85 85 86 86 85 85 85 85 84 84 83 83 83 83 84 85 86 86 85 85 85 85 85 85 85 85 86 86 86 86 86 86 86 86 87 87 88 88 89 89 90 90 91 91 92 92 92 92 92 92 92 92 93 93 93 92 91 90 88 87 86 85 84 84 83
85 85 85 86 86 86 86 86 85 85 85 84 83 82 82 81 81 81 81 81 81 82 82 83 83 83 83 83 82 82 82 82 82 83 83 84 85 85 86 85 85 85 85 85 85 85 85 86 86 86 86 87 87 87 88 88 89 89 89 90 90 90 91 92 92 92 93 93 93 93 93 93 94 94 94 93 92 91 90 88 87 86 85 85 84 84
85 85 85 85 85 85 85 85 84 84 83 82 82 81 79 78 78 78 78 78 79 79 80 80 81 81 81 80 80 80 81 82 83 83 83 84 85 85 85 85 85 85 85 85 85 85 86 86 86 86 87 87 88 89 89 89 90 90 90 91 91 91 92 92 93 93 94 94 94 94 94 95 95 95 94 93 92 91 90 88 87 87 86 85 85 84
86 85 85 85 85 84 84 83 83 82 81 80 79 78 76 75 75 75 75 76 77 78 78 79 79 79 80 80 80 80 82 83 83 83 84 84 85 85 85 86 86 85 85 85 86 86 86 86 87 87 87 88 89 90 90 90 91 91 91 92 92 93 93 94 94 94 94 95 95 95 96 96 96 95 94 93 92 90 89 89 88 87 86 86 85 84
86 86 86 85 84 83 82 81 80 79 78 77 76 74 73 73 73 73 74 74 75 76 76 77 78 79 79 80 80 81 82 83 83 84 84 85 85 85 85 85 86 85 85 85 86 86 86 87 87 88 88 89 90 90 91 91 92 92 92 93 93 94 94 95 95 95 96 96 96 97 97 97 96 95 94 92 91 90 89 89 88 87 87 86 85 85
86 86 86 84 83 82 80 79 77 76 75 73 72 72 71 72 72 72 73 74 74 75 76 77 78 79 79 80 81 82 82 83 83 84 84 84 84 85 85 85 85 85 85 85 86 86 87 87 88 89 90 90 91 91 92 92 92 93 94 94 95 95 95 96 96 97 97 97 98 98 98 97 96 94 93 92 91 90 90 89 88 88 87 86 86 85
86 86 84 83 81 80 78 76 75 73 72 71 71 71 71 72 72 73 74 74 75 76 77 77 78 79 80 80 81 82 82 83 83 83 84 84 84 84 84 85 85 86 86 86 87 87 88 88 89 90 90 91 92 92 93 93 94 94 95 96 96 97 97 97 98 98 98 98 98 98 97 96 95 93 92 91 91 90 89 89 88 88 87 87 87 86
85 84 83 81 79 78 76 74 73 72 71 71 71 72 72 73 73 74 75 76 76 77 78 78 79 79 80 81 81 81 82 82 82 83 83 83 84 84 84 85 86 86 87 87 88 88 89 89 90 91 91 92 93 93 94 95 95 96 96 97 98 98 99 99 99 99 99 99 98 98 96 95 94 93 92 91 91 90 89 89 88 88 88 87 87 87
83 82 81 79 78 76 74 73 72 72 72 72 72 72 73 74 74 75 76 77 77 78 78 79 79 80 80 80 81 81 81 82 82 83 83 84 84 85 85 86 87 88 88 89 89 89 90 90 91 92 93 93 94 95 96 96 97 98 98 98 99 99 100 100 100 100 99 99 98 96 95 94 93 93 92 91 90 90 89 89 88 89 88 88 88 87
80 80 79 77 76 75 74 73 73 73 73 73 73 73 74 75 76 77 77 78 79 79 79 80 80 80 80 81 81 81 82 82 83 83 84 85 85 86 87 87 88 89 89 89 90 91 91 92 92 93 94 95 96 97 98 99 99 99 100 100 100 101 101 101 101 100 99 98 97 96 95 94 93 93 92 91 90 90 89 89 89 89 89 89 88 88
77 77 76 75 75 74 74 74 74 74 74 74 74 75 75 76 77 78 79 79 80 80 81 81 81 81 82 82 82 83 83 84 84 85 85 86 87 88 88 89 89 90 90 91 91 92 93 94 94 95 96 97 98 99 100 100 101 101 101 101 101 101 100 100 100 99 97 97 96 95 95 94 93 93 92 91 90 90 90 90 90 90 90 89 89 89
74 74 74 74 74 74 74 75 75 75 75 75 76 77 77 78 79 79 80 81 82 82 82 83 83 83 84 84 85 85 86 86 86 87 88 88 89 90 90 91 91 92 92 93 94 95 95 96 97 98 99 99 100 101 101 102 102 102 102 102 101 100 99 99 98 97 97 96 96 96 95 94 93 92 92 91 91 91 91 91 91 91 90 90 90 90
73 73 74 74 74 74 75 76 76 77 77 78 79 79 80 80 81 82 82 83 84 85 85 85 85 86 86 87 87 88 88 89 89 90 90 91 91 92 93 93 94 95 95 96 97 97 98 99 100 100 101 102 102 102 103 103 103 102 102 101 100 99 98 97 97 97 96 96 96 96 95 94 93 92 92 92 92 91 92 92 92 91 91 91 91 91
73 73 74 74 75 75 76 77 78 79 79 80 81 82 82 83 84 85 85 86 87 87 88 88 88 89 89 90 90 90 91 91 92 92 93 94 94 95 96 97 97 98 98 99 99 100 100 101 102 102 103 103 104 104 104 103 102 102 101 100 99 98 97 97 97 97 97 96 96 95 94 94 93 92 92 92 93 93 93 93 92 92 92 91 91 91
75 75 75 75 76 76 77 78 79 80 81 81 83 83 84 85 86 87 88 89 90 90 91 91 91 92 93 93 93 93 94 94 95 96 96 97 98 98 99 99 100 100 101 101 101 102 102 103 103 104 104 104 104 104 103 102 101 100 99 98 97 97 97 97 97 97 96 96 96 95 94 94 93 93 93 93 94 94 94 94 93 93 92 92 92 92
78 78 78 78 78 78 79 79 80 81 81 82 83 84 85 86 87 88 90 91 92 92 93 94 94 95 95 96 96 96 96 97 98 98 99 99 100 100 101 101 102 102 102 103 103 103 104 104 105 105 104 104 103 102 101 100 99 98 98 97 97 97 97 97 97 96 96 96 95 95 94 94 94 94 94 95 95 95 95 94 94 93 93 93 93 93
82 82 82 81 81 81 81 81 82 82 83 84 85 86 87 88 88 90 91 92 93 94 94 95 96 96 96 97 97 97 97 98 99 99 100 100 101 101 102 102 103 103 103 104 104 105 105 105 105 105 103 102 101 100 99 99 98 98 98 97 97 97 96 96 96 96 96 95 95 95 95 95 95 95 96 96 96 96 96 95 94 94 94 93 94 94
86 86 86 86 85 85 85 85 85 85 86 86 87 88 89 89 90 91 92 93 94 94 95 95 96 96 96 97 97 97 97 98 98 99 100 101 101 102 103 103 104 105 105 106 106 106 106 105 104 103 102 100 99 98 98 98 98 98 97 97 96 96 96 95 95 96 96 96 96 96 96 96 97 97 97 97 97 97 96 96 95 95 94 94 94 95
89 89 89 89 89 89 89 89 89 89 90 90 90 91 92 92 93 93 94 94 95 95 95 96 96 96 96 96 97 97 97 98 99 100 101 102 103 104 104 105 106 106 107 107 106 106 105 103 102 101 100 99 98 97 97 97 97 97 96 96 96 95 95 95 95 96 96 97 97 97 98 98 98 98 98 98 98 97 97 96 96 96 95 95 96 96
Wind_Direction
254 255 256 257 257 258 259 260 261 262 263 264 264 265 266 266 266 266 266 266 266 266 266 267 268 270 271 272 273 274 275 275 276 276 277 278 279 281 282 283 284 285 286 287 288 289 290 291 291 291 291 291 291 291 291 292 293 295 296 297 298 298 299 299 300 301 303 304 305 306 307 308 310 311 312 313 313 313 313 313 313 314 315 315 317 318
253 254 255 256 257 258 258 259 260 261 262 263 263 264 264 264 264 265 265 265 266 266 266 267 268 269 271 272 273 274 275 275 276 276 277 278 279 281 282 283 284 285 286 287 288 289 290 290 290 290 290 290 290 291 291 292 294 295 296 297 297 298 298 299 300 301 302 304 305 306 307 308 310 311 311 312 312 312 312 313 313 314 314 316 317 318
252 253 254 255 256 257 258 259 259 260 261 261 262 262 262 263 263 264 264 264 265 265 266 267 268 269 270 271 273 273 274 274 275 276 276 278 279 280 282 283 284 285 286 287 288 289 289 290 290 289 289 290 290 290 291 292 294 295 296 297 297 297 298 299 300 301 302 303 304 306 307 308 309 310 311 311 311 312 312 312 313 313 314 316 317 318
252 253 254 255 256 257 257 258 259 259 259 260 260 261 261 262 262 263 263 263 264 265 266 267 268 269 270 271 272 272 273 274 274 275 276 278 279 281 282 283 284 285 286 287 288 289 289 289 289 289 289 289 290 291 292 293 294 295 296 296 297 297 298 299 300 301 302 303 304 306 307 308 309 310 310 310 311 311 311 312 312 313 315 316 317 319
252 252 253 254 255 256 257 258 258 258 258 258 259 259 260 260 261 262 262 263 264 264 265 266 267 268 269 269 270 271 272 273 274 275 276 278 279 281 282 283 284 285 286 287 288 288 289 289 289 289 289 289 290 291 292 293 294 295 295 296 296 297 298 299 300 301 302 303 304 306 307 308 309 309 310 310 310 310 311 311 312 313 315 316 317 319
251 252 253 254 254 255 256 257 257 257 257 257 258 258 258 259 260 261 262 263 264 264 264 264 265 266 267 268 269 270 271 272 273 274 276 278 280 281 282 283 284 285 286 287 288 288 288 288 289 289 289 290 291 291 292 293 294 295 295 296 297 297 298 299 300 301 302 303 304 306 307 307 308 309 309 309 309 310 310 311 312 314 315 316 318 319
250 251 252 253 254 255 255 256 256 256 256 256 257 257 257 258 259 261 262 263 264 264 263 263 263 264 266 267 268 269 270 271 272 273 275 277 279 281 282 283 284 285 286 287 287 288 288 289 289 289 290 290 291 292 292 293 294 295 296 296 297 298 299 299 300 301 302 303 304 305 306 307 307 308 308 308 309 310 311 312 313 314 315 317 318 319
250 250 251 252 253 254 254 255 255 255 255 255 256 256 256 257 258 260 262 263 264 263 262 262 262 263 265 266 267 268 268 269 270 272 274 276 279 280 282 283 284 285 286 286 287 288 289 289 289 290 290 291 291 292 293 294 294 295 296 297 297 298 299 300 300 301 302 303 304 305 305 306 307 307 307 308 309 309 311 312 313 314 315 317 318 319
250 250 251 252 252 253 253 253 253 254 254 254 255 255 255 256 257 259 261 263 263 263 262 261 262 263 264 265 266 267 267 268 270 272 274 276 278 280 281 283 284 285 286 286 287 288 288 289 289 290 290 291 292 292 293 294 294 295 296 297 297 298 299 300 300 301 302 302 303 304 305 305 306 306 307 307 308 309 311 312 313 314 316 317 318 319
250 251 251 251 252 252 252 252 253 253 253 253 254 255 255 255 256 258 260 262 263 263 262 262 263 263 264 265 266 266 267 268 270 272 274 276 277 279 281 282 283 284 285 286 287 287 288 289 289 290 290 291 292 292 293 294 294 295 296 297 297 298 299 299 300 301 301 302 302 303 304 304 305 305 306 307 308 309 311 312 313 315 316 317 318 319
251 251 251 251 251 251 251 252 252 252 252 253 254 255 255 255 256 257 259 261 262 263 263 264 264 264 264 265 265 266 267 269 271 273 275 276 277 278 280 281 282 283 284 285 286 287 287 288 289 290 290 291 292 292 293 293 294 295 296 296 297 298 298 299 299 300 300 301 302 302 303 304 304 305 306 307 308 310 311 312 313 315 316 317 318 319
252 252 252 252 252 252 252 252 252 252 251 252 253 254 255 255 256 256 258 260 262 263 263 264 264 265 265 265 266 267 269 271 273 274 275 276 277 278 279 280 281 282 283 284 285 286 287 288 289 290 290 291 291 292 292 293 293 294 295 296 296 297 297 298 299 299 300 300 301 301 302 303 304 305 306 307 308 310 311 312 313 315 316 317 318 319
253 252 252 252 252 252 252 253 252 252 251 252 253 254 254 255 256 257 258 260 261 262 262 262 263 263 264 265 266 268 270 272 273 274 275 275 276 277 278 279 280 281 283 284 285 287 288 288 289 289 290 290 291 291 291 292 293 294 294 295 295 296 296 297 298 298 299 299 300 301 302 302 303 305 306 307 308 310 311 312 313 315 316 317 318 319
253 252 252 252 252 253 253 253 253 252 251 252 252 253 254 255 256 257 258 259 260 260 259 259 260 261 262 263 265 267 269 270 271 272 273 274 275 276 277 278 280 281 283 285 286 287 288 288 289 289 289 290 290 290 291 291 292 293 294 294 294 295 295 296 297 297 298 298 299 300 301 302 303 305 306 307 308 310 311 312 314 315 316 317 318 319
253 253 252 252 253 253 254 254 253 252 252 252 252 253 253 254 255 256 257 258 258 257 257 257 257 258 259 261 262 264 266 267 269 270 271 273 274 275 277 278 280 282 284 286 287 288 288 288 288 289 289 289 289 290 290 291 292 292 293 293 293 294 294 295 296 296 297 298 299 300 301 302 303 305 306 307 309 310 311 313 314 315 316 317 318 318
253 253 253 253 253 254 254 254 253 253 252 252 251 251 252 253 254 254 255 255 255 255 255 255 255 256 257 259 260 261 263 265 266 268 270 272 274 275 277 279 281 283 285 286 287 287 287 288 288 288 288 289 289 290 290 291 291 292 292 292 292 293 294 294 295 296 296 297 298 299 301 302 303 305 306 308 309 310 312 313 314 315 316 317 317 318
253 253 253 253 253 254 254 254 253 253 252 251 250 250 250 251 251 252 253 253 254 254 255 255 256 257 258 259 260 261 262 264 266 268 270 272 273 275 277 279 282 284 285 286 286 287 287 287 287 288 288 288 289 289 290 290 291 291 291 291 291 292 293 294 294 295 296 297 298 299 301 302 304 305 306 308 309 310 312 313 314 315 316 316 317 318
253 253 254 254 254 254 254 254 253 252 251 249 248 248 248 249 249 250 251 252 253 254 255 256 257 258 260 261 262 263 264 265 266 268 269 271 273 275 277 279 282 284 285 285 286 286 286 286 287 287 287 288 288 288 289 289 289 289 290 290 291 291 292 293 294 295 296 297 298 299 301 302 304 305 307 308 309 311 312 313 314 315 315 316 317 317
253 254 254 254 254 254 254 254 253 252 250 247 246 246 247 247 248 249 250 251 253 254 255 257 258 260 261 262 263 264 265 266 267 268 269 270 272 274 277 279 282 283 284 285 285 285 285 285 286 286 286 287 287 287 288 288 288 288 289 289 290 291 292 293 294 295 296 297 298 300 301 302 304 305 307 308 309 311 312 313 314 314 315 316 317 317
253 253 254 254 254 254 254 254 253 252 249 247 245 245 246 246 247 248 249 250 252 253 255 256 258 259 260 262 263 264 265 266 267 267 268 270 272 274 277 280 282 283 284 284 284 284 284 284 285 285 285 286 286 286 287 287 287 288 288 289 290 291 292 293 294 295 296 297 298 300 301 303 304 305 307 308 309 310 311 312 313 314 315 316 316 317
252 253 253 253 254 253 253 253 253 251 249 247 245 245 245 246 247 248 249 250 251 253 254 255 257 258 259 261 262 263 264 265 266 267 268 270 272 274 277 280 282 283 283 283 283 283 283 283 283 284 284 285 285 286 286 286 287 287 288 289 289 290 291 293 294 295 296 297 298 300 301 302 304 305 307 308 309 310 311 312 313 314 315 316 316 317
251 252 253 253 253 252 252 252 251 251 249 247 245 245 246 247 247 248 249 250 251 252 254 255 256 257 259 260 262 263 264 265 266 267 269 270 273 275 278 280 282 283 282 282 281 281 281 282 282 283 283 284 284 285 285 286 286 287 287 288 289 290 291 292 293 294 295 297 298 299 301 303 304 305 307 308 309 310 311 312 313 314 315 315 316 316
250 251 252 252 252 251 251 250 250 250 248 247 246 246 247 247 248 249 250 251 252 253 254 255 257 258 259 261 262 263 264 266 267 268 270 272 274 276 279 281 282 281 280 280 280 280 280 281 281 282 283 283 284 284 285 285 286 286 287 288 289 290 291 292 293 294 295 297 298 300 301 303 304 305 307 308 309 310 311 312 313 314 314 315 316 316
249 250 250 251 251 251 250 249 249 248 248 247 246 247 248 249 249 250 251 252 253 254 256 257 258 259 260 262 263 264 265 267 268 269 271 273 275 277 279 280 280 279 278 278 278 278 279 280 281 281 282 283 283 284 284 285 286 286 287 288 289 290 291 292 293 294 295 297 298 300 301 303 304 305 307 308 309 310 311 312 313 314 314 315 316 317
248 249 250 250 250 250 250 249 249 248 247 247 247 247 248 250 251 252 253 253 254 256 257 258 259 260 262 263 264 265 266 267 269 270 272 274 276 278 279 279 278 277 276 277 277 278 278 279 280 281 282 282 283 284 284 285 285 286 287 288 289 289 290 291 293 294 295 297 298 300 301 303 304 305 306 308 309 310 311 312 313 313 314 315 316 317
247 248 249 249 250 250 250 249 249 248 248 247 247 247 248 250 251 252 253 254 255 256 257 259 260 261 262 263 264 266 267 268 270 271 273 274 276 277 277 277 276 275 275 275 276 277 278 279 280 281 282 282 283 283 284 284 285 286 287 288 288 289 290 292 293 294 296 297 299 300 301 303 304 305 306 308 309 310 311 312 312 313 314 315 316 317
247 247 248 249 249 250 250 250 249 249 249 249 248 248 248 250 251 252 254 255 256 257 258 259 260 261 262 264 265 266 267 269 270 272 273 275 276 276 275 274 274 274 274 275 276 277 278 279 280 281 281 282 282 283 283 284 285 286 286 287 288 289 290 292 293 295 296 297 299 300 301 302 304 305 306 308 309 310 311 311 312 312 313 314 316 317
247 247 248 248 249 250 250 250 250 250 250 250 250 250 250 250 251 252 253 254 256 257 258 259 260 261 262 264 265 266 268 269 271 272 273 274 274 274 273 272 272 273 274 275 276 277 278 279 280 280 281 281 282 283 283 284 284 285 286 287 288 289 291 292 293 295 296 297 299 300 301 302 304 305 306 307 308 309 310 311 311 312 313 314 316 317
247 247 247 248 249 249 250 250 251 251 251 252 252 252 252 252 252 252 253 254 256 257 258 259 260 261 262 264 265 266 268 269 271 272 273 273 272 271 271 271 272 273 274 275 276 277 278 279 279 280 281 281 282 282 283 283 284 285 286 287 288 290 291 292 294 295 296 297 299 300 301 302 303 305 306 307 308 309 309 310 311 311 313 314 316 316
247 247 247 248 248 249 250 251 251 252 252 252 253 253 253 254 254 254 255 255 256 257 258 260 261 262 263 264 265 266 268 269 270 271 271 271 270 270 270 271 272 273 274 275 276 277 278 279 279 279 280 281 281 282 283 283 284 285 286 288 289 290 291 293 294 295 296 297 299 300 301 302 303 305 306 307 307 308 309 309 310 311 312 314 315 316
247 247 247 248 248 249 250 251 252 252 253 253 253 254 254 255 255 255 256 256 257 258 259 260 261 262 263 264 265 266 267 268 269 269 269 269 269 269 270 271 272 273 274 275 276 277 278 279 279 279 280 280 281 282 283 284 285 286 287 288 289 291 292 293 294 295 296 297 299 300 301 302 303 304 305 306 307 308 308 309 310 311 312 314 314 315
247 247 247 248 248 249 250 251 252 252 253 253 254 254 255 255 256 256 257 257 258 258 259 260 261 262 262 263 264 265 266 266 267 267 267 267 268 269 270 271 272 273 274 275 276 277 277 278 279 279 280 281 281 282 283 284 285 286 288 289 290 291 292 293 294 295 296 298 299 300 301 302 303 304 305 305 306 307 307 308 309 310 312 313 314 314
247 247 247 248 248 249 250 251 251 252 253 254 254 255 255 256 256 257 257 257 258 258 259 259 260 261 261 262 263 263 264 264 265 265 266 267 268 269 270 271 272 273 274 275 276 277 277 278 279 280 280 281 282 283 284 285 286 287 288 290 291 292 293 294 295 296 297 298 299 300 301 302 302 303 304 305 305 306 307 308 309 310 311 312 313 313
246 247 247 248 248 249 250 251 251 253 253 254 255 256 256 256 256 257 256 257 257 257 257 258 258 259 260 260 261 262 262 263 264 264 265 266 268 269 270 271 272 273 274 275 276 276 277 278 279 279 280 281 282 283 284 286 287 288 289 290 291 292 293 294 295 296 297 297 298 299 300 301 302 303 304 304 305 306 306 308 309 310 311 311 312 312
246 247 247 248 249 249 250 251 252 253 254 255 255 256 256 256 256 256 255 255 255 255 256 256 257 257 258 259 260 260 261 262 263 264 265 266 268 269 270 271 272 273 274 275 275 276 277 278 278 279 281 282 283 284 285 286 287 288 289 290 291 292 293 294 295 296 296 297 298 299 300 300 301 302 303 303 304 305 306 308 309 309 310 311 311 312
246 247 247 248 249 250 250 251 252 253 254 255 255 256 256 256 255 255 255 255 255 255 255 256 256 257 257 258 259 260 261 262 263 264 265 267 268 269 270 271 272 273 273 274 275 276 277 278 279 280 281 282 283 284 285 286 287 288 289 290 291 292 293 293 294 295 296 297 297 298 299 300 301 301 302 303 304 305 306 307 308 309 310 310 311 311
246 247 247 248 249 250 251 251 252 253 254 254 255 255 255 255 255 255 255 255 256 256 256 256 257 257 258 258 259 260 261 262 264 265 266 267 268 269 270 270 271 272 272 273 274 275 276 277 279 280 281 282 283 284 285 286 287 288 289 290 291 291 292 293 294 295 295 296 297 298 298 299 300 301 302 303 304 305 306 307 308 308 309 310 310 310
246 247 247 248 249 250 250 251 252 252 253 253 254 254 254 255 255 256 256 256 257 257 257 257 258 258 259 259 260 261 262 263 264 265 266 266 267 268 269 270 270 271 272 273 274 275 276 278 279 280 281 282 283 284 285 286 287 288 289 289 290 291 292 293 293 294 295 295 296 297 298 298 299 300 302 303 304 305 306 307 307 308 309 309 310 310
246 247 247 248 249 249 250 251 251 252 252 252 252 253 254 254 255 255 256 256 257 257 257 258 258 259 259 260 261 261 262 263 264 264 265 266 266 267 268 269 270 270 271 272 274 275 276 278 279 280 281 282 283 284 285 286 287 287 288 289 290 291 291 292 293 294 294 295 296 296 297 298 299 300 302 303 304 305 306 306 307 308 308 309 309 310
246 247 247 248 248 249 249 250 250 251 251 251 252 252 253 253 254 255 255 255 256 256 257 257 258 258 259 260 260 261 261 262 263 263 264 265 265 266 267 268 269 270 271 273 274 275 276 277 279 280 281 282 283 284 285 285 286 287 288 289 290 290 291 292 292 293 294 294 295 296 297 298 299 301 302 303 304 305 305 306 306 307 308 308 309 309
246 247 247 248 248 248 249 249 249 249 250 250 251 251 252 253 253 253 254 254 255 255 256 256 257 257 258 259 259 260 260 261 262 262 263 264 265 266 267 268 269 270 272 273 274 275 276 277 278 279 280 281 282 283 284 285 286 287 288 289 289 290 291 291 292 293 293 294 295 296 297 298 300 301 302 303 304 304 305 305 306 307 307 308 308 309
247 248 248 248 248 248 248 248 248 248 249 250 250 251 251 252 252 253 253 254 254 254 255 255 256 257 257 258 258 259 260 260 261 262 263 264 265 266 267 268 270 271 272 273 274 275 276 277 278 279 280 281 282 283 284 285 286 286 287 288 289 290 290 291 292 292 293 294 295 296 297 299 300 301 302 303 303 304 304 305 306 306 307 307 308 309
249 249 249 249 248 248 247 247 247 248 249 249 250 250 251 251 252 252 253 253 254 254 255 255 256 256 257 258 258 259 260 260 261 262 264 265 266 267 268 269 270 271 272 273 274 275 276 277 278 279 280 281 282 283 284 285 286 286 287 288 289 289 290 291 291 292 293 294 295 296 298 299 300 301 302 302 303 303 304 305 305 306 306 307 308 308
250 250 250 250 249 249 248 247 247 248 248 249 250 250 250 251 251 252 252 253 254 254 255 255 256 257 257 258 259 260 260 261 262 263 264 265 266 268 269 270 270 271 272 273 274 275 276 277 278 279 280 281 282 283 284 285 285 286 287 287 288 289 290 291 291 292 293 295 296 297 298 299 300 301 301 302 302 303 304 305 305 306 306 307 307 308
248 249 250 250 249 249 249 248 248 248 249 249 249 250 250 251 251 252 252 253 254 254 255 256 256 257 258 259 259 260 261 262 263 264 265 266 267 268 269 270 271 271 272 273 274 275 276 277 278 279 280 281 282 283 284 284 285 286 286 287 288 289 290 291 292 293 294 295 296 297 298 299 300 300 301 302 302 303 304 304 305 305 306 306 307 308
245 246 247 248 248 248 248 248 249 249 249 249 250 250 250 251 251 252 253 253 254 255 255 256 257 257 258 259 260 261 262 263 264 264 265 266 267 268 269 269 270 271 272 273 274 275 276 277 278 279 280 281 282 283 283 284 285 285 286 287 288 289 290 291 292 293 294 295 296 297 298 299 299 300 301 301 302 303 304 304 304 305 305 306 307 307
242 243 244 245 246 246 247 248 248 248 249 249 250 250 251 251 252 252 253 253 254 255 255 256 257 257 258 259 260 261 262 263 264 265 265 266 267 268 268 269 270 271 272 273 273 274 275 277 278 279 280 281 282 282 283 284 284 285 286 287 289 290 291 292 292 293 294 295 296 296 297 298 299 300 301 301 302 303 303 304 304 304 305 305 306 307
239 241 242 243 244 244 245 246 247 247 248 249 249 250 250 251 252 252 253 254 254 255 256 256 257 258 258 259 260 261 262 263 264 264 265 266 267 267 268 269 270 271 271 272 273 274 275 277 278 279 280 281 282 282 283 284 285 286 287 288 289 290 291 292 292 293 294 294 295 296 297 298 299 300 301 301 302 302 303 303 304 304 304 305 306 307
238 239 240 241 242 243 244 245 245 246 247 248 248 249 250 251 251 252 253 254 254 255 256 257 257 258 259 259 260 261 262 263 264 265 265 266 267 268 268 269 270 271 272 272 273 274 276 277 278 279 280 281 282 283 284 285 286 287 288 289 289 290 291 291 292 293 293 294 295 296 297 298 299 300 301 301 302 302 302 303 303 304 304 305 306 307
238 239 240 240 241 242 243 244 245 245 246 247 247 248 249 250 251 251 252 253 254 255 256 257 258 258 259 260 261 262 263 263 264 265 266 267 268 268 269 270 271 272 272 273 274 275 276 277 278 279 280 281 282 283 285 286 287 287 288 289 289 290 291 291 292 293 293 294 295 296 297 298 299 300 301 301 302 302 302 302 303 303 304 305 305 306
239 239 240 241 241 242 243 244 244 245 246 246 247 248 249 249 250 251 252 253 254 255 256 257 258 259 260 261 262 262 263 264 265 266 267 268 269 270 270 271 272 273 274 274 275 276 277 279 280 281 281 282 283 284 285 286 287 288 288 289 289 290 290 291 292 293 294 294 295 296 297 298 299 300 301 301 301 301 302 302 302 303 303 304 305 306
Height
10641 10643 10646 10647 10649 10650 10651 10653 10655 10656 10656 10658 10659 10660 10661 10661 10661 10661 10661 10662 10662 10663 10663 10662 10660 10659 10659 10660 10660 10658 10655 10654 10653 10652 10651 10652 10654 10656 10657 10657 10656 10655 10655 10654 10653 10653 10652 10651 10650 10650 10648 10648 10647 10646 10645 10644 10643 10643 10642 10641 10639 10637 10636 10635 10633 10632 10631 10629 10627 10625 10623 10622 10621 10620 10618 10615 10612 10610 10607 10605 10603 10601 10600 10597 10595 10591
10636 10638 10640 10641 10643 10645 10646 10648 10650 10652 10653 10653 10654 10655 10655 10655 10655 10656 10657 10657 10658 10658 10658 10657 10655 10654 10655 10655 10655 10653 10650 10649 10648 10648 10646 10647 10650 10652 10653 10653 10652 10651 10650 10650 10650 10649 10648 10647 10646 10645 10645 10644 10643 10642 10641 10640 10640 10639 10638 10637 10635 10633 10632 10631 10630 10628 10628 10626 10624 10621 10620 10618 10616 10615 10614 10612 10610 10607 10604 10601 10600 10598 10595 10593 10591 10588
10632 10633 10635 10636 10638 10640 10640 10643 10645 10647 10648 10648 10648 10649 10650 10650 10650 10651 10652 10652 10653 10653 10654 10653 10651 10650 10650 10651 10650 10648 10645 10644 10643 10643 10641 10643 10645 10648 10648 10648 10648 10646 10646 10645 10645 10645 10644 10643 10642 10641 10640 10640 10639 10638 10637 10636 10636 10635 10635 10633 10631 10630 10628 10627 10626 10625 10624 10623 10621 10618 10616 10613 10611 10610 10610 10608 10606 10605 10602 10600 10596 10594 10592 10590 10587 10585
10628 10628 10629 10631 10633 10634 10635 10638 10640 10641 10642 10642 10643 10645 10645 10646 10646 10646 10647 10648 10648 10649 10649 10648 10646 10645 10645 10646 10646 10643 10640 10639 10638 10638 10637 10638 10640 10643 10644 10644 10643 10642 10641 10641 10641 10640 10640 10639 10638 10637 10636 10635 10635 10634 10633 10633 10632 10631 10630 10629 10628 10626 10624 10623 10622 10621 10620 10619 10618 10615 10613 10610 10607 10605 10605 10603 10602 10601 10599 10597 10594 10591 10589 10586 10583 10581
10623 10623 10623 10625 10627 10628 10630 10632 10635 10636 10636 10637 10638 10640 10641 10641 10641 10641 10643 10643 10644 10645 10644 10643 10641 10641 10641 10642 10641 10639 10635 10634 10634 10633 10633 10633 10635 10637 10639 10639 10638 10638 10637 10636 10636 10636 10635 10635 10634 10633 10632 10631 10630 10630 10630 10629 10628 10628 10626 10625 10623 10622 10620 10619 10618 10617 10616 10615 10614 10612 10610 10607 10604 10601 10600 10598 10598 10596 10595 10593 10591 10589 10586 10583 10580 10577
10618 10618 10618 10620 10621 10623 10625 10627 10629 10630 10631 10632 10633 10635 10636 10636 10636 10637 10638 10638 10639 10640 10639 10638 10637 10636 10636 10638 10637 10634 10631 10629 10629 10629 10629 10630 10630 10632 10633 10634 10633 10633 10633 10632 10631 10631 10631 10631 10630 10629 10628 10627 10626 10626 10625 10625 10624 10623 10622 10621 10620 10618 10616 10615 10614 10613 10612 10611 10610 10608 10606 10604 10601 10599 10596 10594 10593 10591 10590 10589 10587 10585 10583 10580 10577 10574
10611 10612 10613 10614 10615 10617 10620 10621 10623 10625 10626 10627 10628 10630 10631 10631 10632 10633 10633 10633 10634 10635 10634 10633 10632 10631 10632 10633 10632 10629 10626 10624 10624 10625 10626 10626 10626 10626 10628 10628 10628 10628 10628 10627 10627 10627 10627 10626 10625 10625 10624 10623 10622 10621 10621 10620 10619 10618 10618 10616 10615 10614 10612 10611 10610 10609 10608 10606 10605 10604 10603 10601 10599 10596 10593 10591 10589 10587 10586 10584 10582 10580 10578 10576 10573 10570
10606 10606 10607 10608 10610 10612 10615 10616 10618 10620 10621 10622 10623 10625 10626 10627 10628 10628 10628 10629 10630 10630 10629 10628 10627 10627 10628 10628 10627 10624 10620 10619 10620 10621 10623 10623 10623 10622 10623 10623 10623 10623 10623 10623 10623 10623 10622 10621 10621 10620 10620 10618 10618 10616 10616 10615 10615 10613 10613 10612 10611 10610 10608 10607 10606 10605 10604 10603 10601 10600 10598 10597 10596 10593 10591 10588 10586 10584 10581 10580 10578 10576 10573 10571 10569 10566
10600 10600 10601 10603 10605 10607 10608 10610 10612 10615 10616 10617 10618 10619 10621 10622 10623 10624 10625 10625 10625 10624 10624 10623 10622 10623 10623 10623 10621 10618 10615 10613 10615 10618 10620 10620 10620 10619 10618 10618 10618 10618 10618 10618 10618 10618 10617 10617 10617 10616 10615 10614 10613 10612 10611 10610 10610 10608 10608 10607 10606 10605 10604 10603 10602 10601 10600 10598 10597 10596 10595 10593 10592 10590 10588 10586 10583 10581 10578 10576 10574 10572 10570 10567 10565 10562
10594 10594 10595 10596 10599 10601 10603 10603 10606 10609 10611 10612 10613 10614 10616 10617 10618 10619 10620 10619 10619 10619 10619 10618 10618 10618 10618 10618 10615 10611 10609 10609 10611 10615 10617 10616 10616 10615 10615 10614 10614 10613 10613 10613 10613 10614 10613 10613 10613 10613 10611 10610 10609 10608 10607 10606 10605 10604 10603 10602 10601 10601 10600 10600 10598 10597 10596 10595 10593 10591 10591 10590 10588 10587 10585 10583 10580 10578 10575 10573 10571 10568 10566 10563 10561 10558
10588 10589 10590 10591 10593 10595 10596 10598 10601 10605 10607 10607 10608 10609 10611 10613 10614 10615 10615 10614 10613 10614 10614 10613 10613 10614 10613 10611 10608 10605 10604 10605 10607 10610 10612 10612 10611 10611 10610 10610 10610 10610 10610 10610 10610 10610 10610 10610 10610 10609 10608 10606 10605 10603 10603 10601 10600 10600 10598 10598 10597 10596 10596 10595 10595 10593 10591 10590 10589 10588 10586 10586 10585 10583 10581 10579 10577 10575 10572 10570 10567 10565 10563 10560 10558 10555
10583 10584 10585 10585 10586 10588 10591 10594 10597 10600 10603 10603 10603 10604 10606 10608 10609 10610 10610 10608 10609 10609 10609 10608 10608 10608 10607 10604 10601 10599 10600 10601 10604 10605 10607 10607 10607 10606 10606 10606 10606 10606 10605 10605 10605 10605 10605 10605 10605 10605 10603 10602 10600 10600 10598 10597 10596 10595 10594 10593 10593 10592 10591 10591 10590 10589 10587 10586 10585 10583 10583 10581 10580 10579 10578 10575 10573 10571 10569 10566 10564 10561 10559 10556 10554 10551
10578 10579 10580 10580 10581 10583 10586 10589 10592 10595 10598 10598 10598 10599 10600 10602 10603 10605 10604 10603 10604 10605 10605 10605 10604 10603 10601 10598 10596 10595 10596 10598 10600 10601 10601 10602 10602 10602 10602 10602 10601 10601 10601 10601 10601 10601 10601 10601 10600 10599 10598 10597 10596 10595 10594 10593 10591 10591 10590 10589 10588 10588 10588 10587 10586 10585 10583 10581 10580 10579 10578 10577 10576 10575 10573 10571 10570 10567 10565 10563 10560 10558 10556 10553 10551 10548
10573 10574 10575 10575 10576 10578 10581 10584 10587 10589 10590 10591 10592 10593 10595 10596 10598 10599 10599 10599 10599 10600 10601 10601 10599 10597 10595 10593 10593 10593 10594 10595 10595 10596 10596 10596 10597 10598 10598 10597 10596 10596 10597 10597 10596 10596 10596 10596 10595 10594 10593 10592 10591 10590 10589 10588 10587 10586 10586 10585 10583 10583 10583 10583 10582 10581 10579 10577 10576 10575 10574 10573 10571 10570 10569 10567 10565 10563 10561 10559 10556 10555 10552 10550 10548 10545
10568 10568 10569 10570 10570 10573 10576 10579 10581 10583 10584 10586 10588 10590 10591 10593 10593 10593 10593 10593 10593 10595 10596 10595 10593 10591 10589 10588 10589 10590 10591 10590 10590 10591 10591 10591 10592 10593 10593 10592 10591 10591 10592 10593 10592 10591 10591 10591 10590 10588 10588 10587 10586 10585 10585 10583 10583 10582 10581 10580 10579 10579 10579 10579 10578 10576 10575 10573 10571 10570 10569 10568 10567 10566 10564 10563 10561 10559 10557 10555 10553 10551 10548 10546 10544 10542
10562 10563 10563 10564 10566 10568 10571 10574 10576 10578 10579 10581 10583 10585 10586 10588 10588 10588 10589 10588 10587 10588 10589 10588 10586 10585 10583 10583 10585 10586 10586 10585 10585 10585 10586 10586 10586 10587 10588 10588 10587 10587 10587 10588 10587 10586 10586 10586 10585 10583 10583 10582 10581 10580 10580 10579 10578 10578 10576 10575 10575 10575 10575 10575 10573 10572 10570 10568 10567 10566 10565 10563 10562 10561 10559 10558 10556 10555 10553 10551 10549 10547 10545 10543 10541 10538
10556 10557 10557 10559 10561 10563 10566 10568 10571 10573 10574 10576 10578 10580 10580 10581 10582 10583 10584 10582 10581 10581 10581 10581 10580 10579 10577 10578 10578 10580 10581 10581 10580 10580 10581 10581 10581 10582 10583 10583 10583 10582 10582 10583 10582 10582 10581 10581 10580 10578 10577 10576 10576 10575 10575 10575 10574 10573 10572 10571 10570 10570 10570 10570 10569 10568 10566 10564 10563 10561 10560 10559 10557 10556 10555 10553 10551 10550 10548 10546 10545 10543 10541 10540 10537 10535
10550 10551 10553 10555 10556 10558 10560 10563 10566 10567 10569 10571 10572 10573 10575 10575 10576 10578 10578 10578 10576 10575 10575 10575 10574 10573 10573 10573 10573 10574 10576 10577 10576 10576 10576 10576 10576 10577 10578 10579 10579 10578 10578 10577 10577 10576 10576 10576 10574 10573 10572 10571 10571 10571 10570 10570 10569 10568 10567 10566 10566 10565 10565 10565 10564 10563 10561 10560 10558 10557 10556 10554 10553 10551 10550 10548 10547 10545 10544 10542 10541 10539 10538 10536 10533 10531
10545 10546 10548 10550 10551 10553 10555 10558 10560 10561 10563 10565 10566 10567 10568 10569 10570 10571 10572 10572 10571 10570 10569 10569 10568 10568 10569 10568 10568 10568 10571 10573 10572 10571 10572 10571 10571 10572 10573 10575 10574 10573 10573 10572 10572 10571 10571 10570 10569 10568 10567 10566 10566 10566 10565 10565 10565 10564 10563 10562 10561 10561 10560 10560 10560 10558 10557 10556 10554 10553 10551 10550 10548 10547 10545 10544 10542 10541 10540 10538 10536 10535 10533 10531 10530 10528
10539 10541 10543 10545 10546 10548 10550 10551 10553 10555 10557 10558 10559 10561 10561 10561 10563 10565 10565 10566 10565 10563 10563 10563 10563 10563 10564 10564 10564 10565 10566 10569 10568 10567 10566 10566 10566 10567 10569 10570 10569 10568 10568 10567 10566 10566 10565 10564 10563 10563 10562 10562 10561 10561 10561 10560 10560 10559 10558 10557 10556 10556 10556 10555 10554 10553 10552 10551 10550 10548 10547 10545 10544 10543 10541 10540 10538 10536 10535 10533 10532 10531 10529 10527 10525 10523
10534 10535 10537 10539 10541 10544 10545 10546 10548 10551 10551 10553 10554 10555 10554 10555 10556 10558 10558 10558 10558 10557 10557 10558 10557 10557 10558 10559 10559 10560 10561 10564 10563 10561 10561 10562 10563 10563 10564 10565 10565 10563 10563 10561 10561 10561 10560 10559 10558 10558 10558 10557 10556 10556 10556 10555 10555 10554 10553 10553 10552 10551 10551 10550 10549 10548 10547 10546 10545 10543 10542 10541 10540 10538 10536 10535 10534 10532 10531 10529 10528 10526 10525 10523 10521 10519
10529 10530 10532 10535 10537 10539 10540 10541 10544 10546 10546 10548 10548 10548 10547 10548 10550 10551 10551 10551 10551 10551 10551 10551 10551 10552 10553 10555 10554 10555 10556 10558 10558 10556 10557 10558 10558 10558 10559 10560 10560 10559 10558 10556 10555 10555 10555 10554 10553 10553 10553 10552 10552 10551 10551 10550 10550 10549 10548 10548 10547 10546 10546 10545 10544 10543 10542 10541 10540 10539 10538 10536 10535 10534 10532 10531 10530 10528 10526 10525 10523 10521 10520 10518 10516 10515
10524 10525 10527 10530 10532 10534 10535 10538 10539 10540 10541 10542 10542 10541 10541 10543 10544 10544 10545 10546 10546 10545 10545 10545 10546 10548 10549 10550 10550 10550 10551 10552 10553 10553 10554 10555 10553 10552 10554 10556 10556 10554 10552 10550 10550 10550 10549 10548 10548 10548 10548 10548 10547 10546 10546 10545 10545 10544 10543 10543 10542 10541 10541 10540 10539 10538 10537 10536 10535 10534 10533 10531 10530 10529 10528 10526 10525 10523 10522 10520 10519 10517 10516 10514 10512 10510
10519 10520 10522 10524 10525 10527 10530 10531 10532 10533 10535 10536 10536 10536 10537 10538 10539 10539 10539 10540 10540 10540 10540 10541 10542 10543 10543 10545 10545 10545 10546 10547 10548 10550 10550 10549 10548 10548 10549 10551 10551 10549 10546 10545 10544 10544 10543 10543 10543 10543 10543 10543 10542 10541 10541 10540 10540 10539 10538 10538 10537 10536 10536 10535 10534 10533 10532 10531 10530 10529 10528 10527 10526 10525 10523 10521 10520 10519 10517 10516 10515 10513 10511 10510 10508 10506
10513 10515 10516 10518 10519 10521 10523 10525 10525 10526 10528 10530 10531 10532 10533 10534 10535 10535 10535 10535 10535 10536 10536 10536 10537 10537 10538 10539 10540 10540 10540 10541 10543 10545 10544 10543 10543 10543 10544 10545 10545 10543 10540 10538 10538 10539 10538 10538 10537 10538 10538 10538 10537 10536 10536 10535 10535 10534 10533 10533 10532 10531 10530 10530 10529 10528 10527 10526 10525 10524 10523 10522 10521 10520 10518 10517 10515 10514 10513 10511 10510 10508 10507 10505 10503 10501
10508 10510 10511 10512 10514 10515 10516 10518 10519 10520 10521 10523 10524 10525 10526 10528 10530 10531 10531 10530 10530 10531 10531 10531 10531 10531 10533 10535 10535 10535 10534 10536 10538 10539 10539 10539 10539 10538 10539 10540 10539 10537 10534 10532 10533 10533 10533 10532 10532 10532 10533 10532 10531 10531 10531 10530 10529 10528 10528 10528 10527 10526 10525 10525 10524 10523 10522 10521 10520 10519 10518 10517 10516 10515 10513 10512 10510 10509 10508 10506 10505 10504 10502 10501 10499 10497
10502 10504 10506 10507 10508 10509 10510 10511 10513 10514 10515 10516 10517 10518 10520 10522 10525 10526 10525 10524 10524 10525 10526 10526 10526 10526 10528 10529 10529 10528 10529 10531 10532 10533 10534 10535 10535 10533 10533 10533 10533 10531 10528 10527 10527 10528 10528 10527 10526 10526 10527 10526 10526 10526 10525 10525 10524 10523 10523 10522 10521 10521 10520 10520 10519 10518 10517 10516 10515 10514 10513 10512 10511 10510 10508 10507 10506 10505 10503 10502 10501 10500 10498 10496 10495 10493
10496 10498 10500 10501 10502 10503 10504 10505 10506 10508 10508 10510 10511 10513 10515 10517 10518 10518 10516 10517 10519 10521 10521 10520 10520 10521 10523 10523 10523 10523 10525 10526 10526 10526 10528 10530 10530 10528 10526 10526 10526 10525 10523 10522 10521 10522 10523 10522 10521 10521 10521 10521 10520 10520 10520 10520 10519 10518 10518 10517 10516 10516 10515 10515 10514 10513 10512 10511 10510 10509 10508 10506 10506 10505 10503 10502 10501 10500 10499 10498 10496 10495 10493 10491 10490 10488
10490 10492 10494 10495 10496 10497 10498 10500 10501 10501 10503 10504 10506 10507 10509 10511 10511 10511 10510 10511 10514 10515 10515 10514 10515 10517 10518 10518 10518 10519 10520 10520 10520 10522 10524 10525 10523 10521 10520 10520 10520 10518 10518 10518 10517 10516 10516 10516 10516 10516 10516 10515 10515 10515 10515 10514 10514 10513 10513 10512 10511 10511 10510 10510 10508 10508 10507 10506 10505 10504 10503 10501 10500 10499 10498 10497 10496 10495 10494 10493 10491 10490 10489 10487 10485 10484
10483 10486 10488 10489 10490 10491 10493 10493 10495 10496 10497 10499 10500 10501 10503 10504 10505 10505 10505 10507 10509 10509 10508 10508 10510 10511 10512 10513 10514 10515 10513 10513 10515 10517 10520 10519 10516 10514 10514 10515 10513 10512 10513 10513 10513 10511 10510 10510 10511 10511 10511 10510 10510 10510 10509 10509 10508 10508 10507 10506 10506 10505 10505 10504 10503 10503 10501 10501 10500 10498 10497 10496 10495 10494 10493 10492 10491 10491 10490 10488 10487 10486 10484 10483 10481 10480
10476 10478 10480 10481 10483 10485 10486 10487 10488 10490 10491 10493 10495 10495 10496 10498 10499 10500 10501 10502 10503 10503 10503 10503 10505 10506 10506 10508 10510 10509 10507 10507 10510 10512 10514 10513 10510 10508 10508 10509 10508 10506 10507 10508 10508 10506 10505 10503 10504 10505 10506 10505 10505 10504 10504 10503 10503 10503 10502 10501 10501 10500 10500 10499 10498 10497 10496 10495 10494 10493 10492 10491 10490 10489 10488 10488 10486 10486 10485 10484 10483 10481 10480 10478 10476 10475
10469 10471 10473 10474 10476 10478 10480 10481 10482 10483 10485 10486 10488 10489 10491 10492 10493 10494 10495 10496 10496 10497 10498 10498 10499 10500 10501 10502 10503 10502 10501 10502 10504 10506 10507 10506 10504 10502 10503 10503 10503 10501 10501 10503 10503 10502 10500 10498 10497 10498 10499 10500 10499 10498 10498 10498 10498 10497 10496 10496 10495 10495 10493 10493 10493 10491 10490 10490 10488 10488 10486 10486 10485 10484 10483 10483 10482 10481 10480 10479 10478 10476 10475 10473 10471 10470
10463 10465 10466 10468 10470 10471 10473 10474 10475 10476 10478 10480 10481 10483 10485 10486 10487 10488 10489 10490 10491 10491 10492 10493 10493 10494 10495 10496 10497 10496 10496 10497 10498 10500 10501 10500 10498 10497 10496 10498 10498 10496 10496 10496 10496 10496 10496 10494 10493 10492 10492 10493 10493 10493 10492 10492 10491 10491 10491 10491 10490 10489 10488 10488 10487 10486 10485 10484 10483 10482 10481 10481 10480 10479 10478 10478 10477 10476 10475 10474 10473 10471 10470 10469 10467 10465
10456 10458 10460 10461 10463 10465 10466 10467 10469 10470 10471 10473 10475 10477 10478 10480 10481 10483 10484 10485 10485 10486 10486 10487 10488 10489 10490 10490 10491 10491 10491 10491 10493 10493 10495 10495 10493 10491 10491 10492 10491 10491 10491 10491 10491 10490 10490 10489 10488 10487 10486 10486 10486 10486 10486 10486 10486 10486 10485 10485 10485 10483 10482 10482 10481 10480 10480 10479 10478 10477 10476 10476 10475 10475 10474 10473 10472 10471 10470 10469 10468 10466 10465 10464 10463 10461
10450 10451 10453 10454 10456 10458 10459 10461 10463 10465 10466 10468 10470 10471 10473 10474 10475 10477 10478 10479 10480 10480 10481 10481 10483 10483 10483 10484 10485 10485 10486 10486 10486 10488 10489 10489 10487 10486 10486 10486 10486 10486 10486 10485 10485 10485 10485 10483 10483 10482 10482 10481 10480 10480 10480 10481 10481 10480 10480 10479 10479 10478 10477 10476 10476 10475 10474 10473 10473 10472 10471 10471 10470 10470 10469 10468 10468 10466 10465 10464 10463 10461 10460 10459 10458 10456
10443 10444 10445 10447 10449 10451 10453 10455 10457 10459 10461 10462 10464 10465 10467 10469 10470 10471 10473 10473 10474 10475 10475 10476 10477 10478 10478 10479 10479 10480 10480 10480 10481 10483 10483 10483 10482 10481 10481 10480 10480 10480 10481 10480 10479 10479 10479 10478 10477 10477 10477 10476 10475 10474 10474 10475 10475 10475 10474 10473 10473 10473 10472 10471 10471 10470 10470 10468 10468 10467 10466 10466 10465 10465 10464 10463 10463 10461 10460 10459 10458 10456 10455 10453 10452 10450
10436 10436 10438 10440 10443 10445 10447 10450 10451 10454 10456 10457 10459 10461 10463 10464 10465 10466 10466 10467 10468 10468 10470 10470 10471 10472 10473 10474 10475 10475 10475 10476 10476 10477 10477 10476 10476 10476 10476 10475 10474 10475 10475 10475 10473 10473 10473 10473 10471 10471 10471 10471 10470 10469 10468 10469 10469 10469 10468 10468 10468 10468 10466 10466 10465 10465 10465 10463 10463 10462 10461 10461 10461 10460 10459 10458 10457 10456 10455 10453 10453 10451 10450 10448 10446 10445
10429 10430 10432 10435 10438 10440 10442 10445 10446 10449 10450 10452 10454 10455 10457 10458 10459 10460 10460 10461 10462 10463 10464 10465 10465 10466 10468 10468 10470 10470 10470 10471 10471 10471 10471 10471 10471 10470 10470 10469 10468 10469 10469 10469 10468 10468 10468 10467 10466 10466 10465 10465 10465 10464 10464 10464 10463 10463 10462 10462 10462 10462 10461 10461 10460 10460 10459 10458 10458 10457 10456 10456 10456 10455 10454 10453 10452 10451 10450 10448 10447 10446 10444 10442 10440 10439
10423 10425 10426 10429 10432 10435 10438 10440 10441 10443 10445 10447 10448 10450 10451 10452 10453 10454 10455 10456 10456 10457 10458 10459 10460 10461 10462 10463 10464 10464 10465 10465 10465 10465 10465 10465 10465 10465 10464 10463 10463 10463 10463 10463 10463 10463 10462 10461 10461 10461 10460 10459 10458 10458 10458 10459 10458 10458 10457 10456 10456 10456 10456 10456 10455 10455 10453 10453 10453 10451 10451 10451 10450 10450 10448 10447 10446 10445 10444 10442 10441 10440 10438 10437 10435 10433
10417 10419 10421 10423 10426 10429 10432 10434 10436 10438 10440 10441 10443 10445 10446 10446 10448 10448 10450 10450 10451 10451 10453 10453 10455 10455 10456 10457 10458 10458 10458 10458 10458 10458 10459 10458 10458 10458 10458 10458 10457 10456 10457 10457 10457 10457 10457 10456 10456 10455 10455 10454 10453 10453 10453 10453 10452 10452 10452 10451 10450 10450 10450 10450 10450 10449 10448 10448 10447 10446 10446 10445 10445 10444 10443 10442 10441 10440 10438 10437 10435 10434 10433 10431 10430 10428
10411 10413 10415 10418 10421 10424 10426 10428 10430 10432 10434 10436 10438 10439 10440 10440 10441 10442 10443 10444 10445 10446 10446 10448 10449 10450 10450 10451 10451 10452 10452 10452 10452 10452 10452 10452 10452 10452 10452 10452 10451 10451 10451 10451 10451 10451 10451 10451 10450 10450 10449 10449 10448 10448 10448 10447 10447 10447 10447 10446 10445 10444 10444 10444 10444 10443 10443 10442 10441 10441 10441 10440 10439 10438 10437 10436 10435 10434 10433 10432 10430 10428 10426 10425 10425 10423
10406 10408 10410 10412 10415 10418 10420 10423 10425 10427 10428 10430 10432 10433 10433 10433 10435 10436 10436 10438 10439 10440 10440 10441 10442 10443 10444 10445 10445 10445 10446 10446 10446 10446 10446 10446 10446 10446 10446 10446 10446 10446 10446 10446 10445 10445 10445 10445 10445 10444 10443 10443 10443 10443 10442 10441 10441 10441 10441 10441 10440 10440 10438 10438 10438 10438 10438 10436 10435 10435 10435 10434 10433 10432 10431 10430 10429 10428 10426 10426 10425 10423 10421 10420 10418 10417
10400 10401 10404 10407 10410 10412 10415 10417 10419 10421 10423 10425 10426 10426 10426 10428 10429 10430 10431 10431 10432 10433 10433 10435 10436 10436 10437 10437 10438 10438 10439 10440 10440 10440 10440 10440 10440 10440 10440 10440 10440 10440 10440 10440 10440 10439 10438 10439 10439 10438 10438 10438 10438 10438 10436 10435 10435 10435 10435 10435 10435 10435 10433 10431 10431 10431 10431 10430 10430 10429 10429 10428 10427 10426 10425 10424 10423 10421 10421 10420 10418 10417 10416 10415 10413 10411
10395 10397 10400 10403 10405 10407 10410 10412 10413 10414 10416 10418 10419 10420 10421 10422 10423 10424 10425 10425 10426 10426 10427 10428 10430 10430 10431 10431 10431 10431 10432 10433 10433 10434 10434 10433 10433 10433 10434 10434 10433 10434 10434 10435 10434 10433 10433 10433 10433 10433 10433 10433 10433 10431 10431 10430 10430 10430 10429 10429 10429 10429 10428 10426 10425 10425 10424 10423 10423 10423 10423 10422 10421 10420 10419 10418 10416 10416 10415 10413 10412 10411 10410 10408 10407 10406
10391 10393 10396 10397 10400 10402 10404 10405 10405 10407 10410 10411 10413 10413 10415 10415 10416 10418 10418 10418 10419 10420 10421 10421 10423 10424 10425 10424 10424 10425 10426 10426 10427 10427 10428 10427 10427 10427 10428 10428 10427 10428 10428 10428 10428 10428 10428 10427 10426 10426 10426 10427 10427 10426 10425 10425 10424 10423 10423 10423 10423 10423 10421 10420 10420 10419 10418 10417 10416 10416 10416 10416 10415 10414 10412 10411 10410 10409 10408 10408 10406 10405 10403 10402 10401 10400
10388 10390 10391 10391 10393 10395 10396 10397 10399 10401 10404 10405 10406 10407 10408 10409 10410 10411 10411 10412 10412 10413 10413 10415 10416 10418 10417 10416 10418 10419 10420 10420 10420 10420 10421 10421 10421 10421 10421 10421 10421 10421 10421 10421 10421 10422 10422 10422 10421 10421 10421 10421 10420 10420 10420 10420 10419 10418 10417 10416 10416 10416 10415 10414 10413 10413 10413 10412 10411 10410 10410 10410 10409 10408 10406 10405 10403 10403 10401 10401 10400 10399 10398 10396 10395 10394
10381 10383 10384 10386 10388 10390 10391 10392 10394 10396 10397 10398 10399 10400 10401 10402 10403 10405 10405 10405 10405 10406 10406 10408 10410 10411 10410 10410 10411 10413 10414 10413 10413 10413 10414 10414 10415 10415 10415 10415 10415 10416 10416 10416 10416 10416 10416 10416 10416 10416 10416 10415 10414 10413 10413 10413 10413 10413 10411 10410 10410 10410 10408 10408 10407 10407 10407 10406 10405 10404 10403 10403 10402 10401 10400 10398 10397 10396 10395 10394 10393 10393 10391 10390 10389 10388
10375 10376 10378 10380 10382 10384 10385 10387 10388 10390 10391 10392 10393 10394 10395 10396 10396 10398 10398 10398 10398 10399 10400 10401 10402 10403 10404 10405 10406 10406 10408 10408 10407 10407 10407 10408 10408 10408 10408 10409 10409 10410 10410 10410 10410 10410 10410 10410 10410 10410 10410 10410 10408 10407 10406 10406 10406 10406 10405 10405 10404 10403 10402 10401 10401 10401 10400 10400 10398 10398 10397 10396 10396 10394 10393 10391 10390 10389 10388 10388 10386 10386 10385 10385 10383 10381
10368 10370 10372 10374 10376 10378 10379 10380 10382 10384 10385 10386 10386 10388 10388 10389 10390 10391 10391 10390 10391 10392 10393 10394 10395 10396 10397 10398 10399 10400 10401 10401 10401 10401 10401 10401 10401 10401 10401 10401 10402 10403 10403 10403 10403 10404 10404 10404 10403 10403 10404 10404 10403 10401 10400 10400 10400 10400 10399 10398 10397 10396 10396 10395 10394 10394 10394 10393 10391 10391 10391 10390 10389 10388 10387 10386 10383 10382 10381 10381 10380 10379 10378 10378 10376 10375
10361 10363 10365 10368 10370 10371 10372 10374 10376 10378 10378 10379 10380 10381 10381 10382 10383 10384 10384 10385 10385 10386 10387 10388 10389 10390 10391 10391 10393 10394 10395 10395 10395 10394 10393 10393 10393 10394 10394 10394 10395 10395 10395 10395 10396 10396 10397 10397 10396 10396 10396 10397 10398 10396 10395 10393 10392 10392 10392 10391 10390 10390 10390 10388 10387 10386 10386 10386 10385 10384 10384 10383 10382 10381 10381 10380 10377 10375 10374 10373 10373 10372 10371 10371 10370 10368
10355 10356 10359 10361 10363 10364 10366 10368 10370 10371 10372 10373 10373 10374 10375 10376 10376 10377 10378 10378 10380 10380 10381 10381 10383 10384 10385 10385 10386 10387 10388 10388 10388 10387 10386 10386 10386 10387 10387 10386 10386 10388 10388 10388 10388 10388 10390 10390 10389 10388 10387 10388 10390 10391 10390 10388 10386 10385 10385 10383 10383 10383 10383 10381 10380 10380 10380 10379 10378 10377 10376 10376 10375 10374 10373 10373 10371 10369 10367 10366 10365 10365 10364 10364 10363 10362